Location: Sternwarte-Kraichtal
(49.1689°N, 8.6996°E)
Time: 20:52:22
(UTC+02:00)

Vanguard 2 Rocket - Pass Details

Date: 31 May 2022
Orbit: 553 x 3323 km, 32.9° (Epoch: 02 July)

Event Time Altitude Azimuth Distance (km) Brightness Sun altitude
Rises 17:56:59 0° 270° (W) 7,158 12.7 30.4°
Reaches altitude 10° 18:02:57 10° 261° (W) 5,881 12.6 29.4°
Maximum altitude 18:16:22 30° 211° (SSW) 3,545 10.5 27.2°
Drops below altitude 10° 18:25:33 10° 155° (SSE) 3,963 10.0 25.7°
Sets 18:28:41 0° 144° (SE) 4,586 10.1 25.2°
